CDT,Max TemperatureF,Mean TemperatureF,Min TemperatureF,Max Dew PointF,MeanDew PointF,Min DewpointF,Max Humidity, Mean Humidity, Min Humidity, Max Sea Level PressureIn, Mean Sea Level PressureIn, Min Sea Level PressureIn, Max VisibilityMiles, Mean VisibilityMiles, Min VisibilityMiles, Max Wind SpeedMPH, Mean Wind SpeedMPH, Max Gust SpeedMPH,PrecipitationIn, CloudCover, Events, WindDirDegrees
2012-10-1,84,76,68,66,63,61,87,67,46,29.91,29.87,29.83,10,10,10,13,6,,0.00,0,,349
2012-10-2,90,77,66,65,62,53,93,65,30,29.99,29.94,29.89,10,10,9,15,4,20,0.00,1,,327
2012-10-3,91,80,70,73,68,62,84,65,48,30.01,29.97,29.93,10,10,9,23,10,29,0.00,1,,156
2012-10-4,93,84,75,74,72,70,84,70,52,30.10,30.05,30.00,10,10,9,24,13,30,0.00,0,,157
2012-10-5,88,80,73,70,67,65,87,67,46,30.09,30.03,29.98,10,10,10,14,7,,0.00,0,,135
2012-10-6,89,78,68,72,68,62,87,70,53,29.99,29.95,29.89,10,10,10,15,6,21,0.00,0,,110
2012-10-7,84,75,66,73,69,64,100,87,65,30.07,30.01,29.95,10,5,0,22,12,31,1.94,6,Fog-Rain,337
2012-10-8,69,66,63,64,59,55,94,80,70,30.16,30.09,30.06,10,9,7,22,16,29,0.03,8,Rain,334
2012-10-9,86,74,64,75,69,60,89,77,61,30.06,30.00,29.94,10,10,9,18,7,24,0.00,3,,113
2012-10-10,90,82,75,77,75,73,94,79,59,30.05,30.00,29.96,10,9,6,17,9,23,0.00,1,,136
2012-10-11,89,84,78,76,75,74,90,78,61,30.10,30.06,30.01,10,10,9,22,11,26,0.00,0,,132
2012-10-12,89,84,78,77,76,73,90,79,65,30.12,30.07,30.03,10,9,2,20,11,30,0.31,3,Rain,128
2012-10-13,88,82,77,78,75,72,94,82,62,30.09,30.03,29.93,10,7,1,25,14,34,0.60,5,Rain,150
2012-10-14,89,82,75,74,71,68,85,71,51,30.04,29.98,29.92,10,10,9,16,12,21,0.00,0,,151
2012-10-15,87,80,72,73,71,68,93,78,55,30.06,29.99,29.93,10,9,6,13,4,,0.00,1,,57
2012-10-16,90,81,73,73,71,69,93,74,52,29.95,29.86,29.77,10,10,8,17,6,22,0.00,1,,162
2012-10-17,91,82,75,75,71,67,88,72,46,29.80,29.74,29.66,10,9,8,16,10,24,0.00,0,,177
2012-10-18,95,86,78,79,77,75,93,81,54,29.87,29.77,29.71,8,6,4,20,9,24,0.00,2,,159
2012-10-19,86,82,78,77,74,71,94,80,67,29.97,29.91,29.86,10,7,3,20,8,26,0.00,3,,60
2012-10-20,89,82,77,75,74,73,90,77,63,29.92,29.88,29.82,10,8,5,20,10,26,0.00,2,,149
2012-10-21,90,84,78,74,72,70,84,72,55,29.94,29.89,29.86,10,9,8,23,12,30,0.00,1,,152
2012-10-22,88,82,77,75,72,70,84,72,61,29.95,29.92,29.88,10,10,9,22,12,28,0.00,2,,145
2012-10-23,88,80,77,72,70,69,79,72,59,29.96,29.92,29.89,10,10,10,17,11,23,0.00,1,,136
2012-10-24,88,80,73,71,69,68,85,76,59,29.96,29.91,29.87,10,10,10,15,7,,0.00,0,,139
2012-10-25,90,81,73,74,72,69,90,76,57,29.89,29.84,29.79,10,10,9,21,10,26,0.00,1,,149
2012-10-26,88,76,62,73,68,49,93,76,59,30.15,29.97,29.88,10,10,9,23,10,31,0.00,4,,48
2012-10-27,66,60,55,50,46,41,82,63,47,30.22,30.15,30.10,10,10,9,23,19,30,0.00,6,,331
2012-10-28,71,65,59,51,47,41,65,53,47,30.21,30.17,30.13,10,10,10,16,10,22,0.00,8,,342
2012-10-29,78,66,55,58,53,47,80,62,43,30.22,30.17,30.12,10,10,10,13,7,20,0.00,1,,21
2012-10-30,80,70,59,65,60,54,84,70,50,30.13,30.04,29.98,10,10,10,17,7,,0.00,0,,128
2012-10-31,87,77,70,74,70,65,91,80,56,30.02,29.97,29.94,10,9,2,16,7,24,0.15,3,Rain-Thunderstorm,146